KLM938 EGPF-EHAM

Flight info

Callsign KLM938
Flight time 1h 23m
Altitude 37000
Route NORBO Y96 HAVEN DCT ERKIT N110 DOLAS L603 LAMSO
Aircraft B738/M-SDGIJ1LRWY/SB1

Departure

Time 2026-05-07 11:58
Airport Glasgow Airport (EGPF)

Arrival

Time 2026-05-07 13:21
Airport Amsterdam Airport Schiphol (EHAM)
Time Latitude Longitude Altitude Speed Heading
2026-05-07 11:28 55.86472 -4.43623 22 ft 0 kts 253°
2026-05-07 11:48 55.86472 -4.43624 22 ft 0 kts 253°
2026-05-07 11:48 55.86473 -4.43616 22 ft 2 kts 254°
2026-05-07 11:49 55.86477 -4.43591 22 ft 2 kts 254°
2026-05-07 11:49 55.86482 -4.43565 23 ft 2 kts 254°
2026-05-07 11:49 55.86486 -4.43540 23 ft 2 kts 253°
2026-05-07 11:49 55.86490 -4.43514 24 ft 2 kts 262°
2026-05-07 11:50 55.86490 -4.43487 24 ft 2 kts 282°
2026-05-07 11:50 55.86486 -4.43464 24 ft 0 kts 298°
2026-05-07 11:50 55.86485 -4.43460 24 ft 1 kts 300°
2026-05-07 11:50 55.86504 -4.43499 24 ft 5 kts 327°
2026-05-07 11:51 55.86523 -4.43513 24 ft 1 kts 344°
2026-05-07 11:51 55.86524 -4.43513 24 ft 0 kts 344°
2026-05-07 11:52 55.86552 -4.43528 23 ft 11 kts 344°
2026-05-07 11:52 55.86659 -4.43585 22 ft 17 kts 344°
2026-05-07 11:53 55.86760 -4.43552 21 ft 15 kts 69°
2026-05-07 11:53 55.86790 -4.43367 21 ft 14 kts 75°
2026-05-07 11:53 55.86818 -4.43194 21 ft 14 kts 74°
2026-05-07 11:53 55.86850 -4.43013 21 ft 15 kts 63°
2026-05-07 11:54 55.86937 -4.42899 21 ft 16 kts 26°
2026-05-07 11:54 55.87045 -4.42815 21 ft 17 kts 21°
2026-05-07 11:54 55.87167 -4.42734 21 ft 19 kts 22°
2026-05-07 11:54 55.87298 -4.42646 21 ft 21 kts 19°
2026-05-07 11:55 55.87427 -4.42512 21 ft 22 kts 45°
2026-05-07 11:55 55.87539 -4.42304 21 ft 24 kts 47°
2026-05-07 11:55 55.87663 -4.42073 18 ft 26 kts 47°
2026-05-07 11:55 55.87777 -4.41879 17 ft 19 kts 30°
2026-05-07 11:56 55.87908 -4.41884 15 ft 18 kts 320°
2026-05-07 11:56 55.87893 -4.42020 16 ft 0 kts 225°
2026-05-07 11:57 55.87747 -4.42290 19 ft 65 kts 225°
2026-05-07 11:57 55.87277 -4.43175 19 ft 126 kts 227°
2026-05-07 11:57 55.86557 -4.44510 265 ft 169 kts 224°
2026-05-07 11:58 55.85806 -4.45997 1405 ft 165 kts 226°
2026-05-07 11:58 55.85197 -4.47621 2504 ft 165 kts 239°
2026-05-07 11:58 55.84531 -4.49273 3419 ft 171 kts 221°
2026-05-07 11:58 55.83610 -4.50645 4316 ft 180 kts 219°
2026-05-07 11:59 55.82675 -4.52131 5043 ft 185 kts 223°
2026-05-07 11:59 55.81719 -4.53771 5417 ft 198 kts 224°
2026-05-07 11:59 55.80700 -4.55533 5728 ft 215 kts 224°
2026-05-07 11:59 55.79569 -4.57475 5984 ft 233 kts 223°
2026-05-07 12:00 55.78361 -4.59538 5971 ft 245 kts 223°
2026-05-07 12:00 55.77152 -4.61608 5958 ft 238 kts 223°
2026-05-07 12:00 55.75961 -4.63632 5952 ft 238 kts 223°
2026-05-07 12:00 55.74780 -4.65657 5945 ft 238 kts 223°
2026-05-07 12:01 55.73586 -4.67707 5946 ft 238 kts 223°
2026-05-07 12:01 55.72390 -4.69756 5944 ft 238 kts 223°
2026-05-07 12:01 55.71211 -4.71761 6142 ft 236 kts 223°
2026-05-07 12:01 55.70007 -4.73798 6530 ft 240 kts 221°
2026-05-07 12:02 55.68624 -4.75428 6951 ft 242 kts 201°
2026-05-07 12:02 55.66961 -4.75947 7395 ft 245 kts 184°
2026-05-07 12:02 55.65231 -4.75973 7877 ft 258 kts 182°
2026-05-07 12:02 55.63421 -4.75644 8675 ft 266 kts 169°
2026-05-07 12:03 55.61699 -4.74356 9455 ft 278 kts 149°
2026-05-07 12:03 55.60286 -4.71982 10239 ft 289 kts 131°
2026-05-07 12:03 55.59253 -4.68851 10752 ft 309 kts 114°
2026-05-07 12:03 55.58738 -4.65066 11234 ft 328 kts 101°
2026-05-07 12:04 55.58472 -4.60994 11688 ft 344 kts 98°
2026-05-07 12:04 55.58261 -4.56678 12205 ft 357 kts 97°
2026-05-07 12:04 55.58045 -4.52302 12856 ft 365 kts 98°
2026-05-07 12:04 55.57795 -4.47792 13617 ft 369 kts 98°
2026-05-07 12:05 55.57518 -4.43263 14346 ft 374 kts 99°
2026-05-07 12:05 55.57223 -4.38701 15086 ft 378 kts 99°
2026-05-07 12:05 55.56915 -4.34069 15807 ft 381 kts 99°
2026-05-07 12:05 55.56603 -4.29433 16489 ft 386 kts 99°
2026-05-07 12:06 55.56282 -4.24690 17183 ft 390 kts 99°
2026-05-07 12:06 55.55957 -4.19918 17856 ft 394 kts 99°
2026-05-07 12:06 55.55629 -4.15114 18511 ft 398 kts 99°
2026-05-07 12:06 55.55301 -4.10309 19218 ft 400 kts 99°
2026-05-07 12:07 55.54962 -4.05394 19844 ft 404 kts 99°
2026-05-07 12:07 55.54623 -4.00502 20453 ft 408 kts 99°
2026-05-07 12:07 55.54274 -3.95498 21061 ft 412 kts 99°
2026-05-07 12:07 55.53921 -3.90450 21677 ft 414 kts 99°
2026-05-07 12:08 55.53567 -3.85460 22252 ft 417 kts 99°
2026-05-07 12:08 55.53207 -3.80377 22869 ft 419 kts 99°
2026-05-07 12:08 55.52843 -3.75267 23449 ft 421 kts 99°
2026-05-07 12:08 55.52473 -3.70079 23985 ft 424 kts 99°
2026-05-07 12:09 55.52103 -3.64921 24507 ft 427 kts 99°
2026-05-07 12:09 55.51731 -3.59771 24995 ft 431 kts 99°
2026-05-07 12:09 55.51349 -3.54534 25520 ft 434 kts 99°
2026-05-07 12:09 55.50956 -3.49185 26019 ft 437 kts 99°
2026-05-07 12:10 55.50566 -3.43895 26493 ft 440 kts 99°
2026-05-07 12:10 55.50172 -3.38568 26929 ft 444 kts 99°
2026-05-07 12:10 55.49759 -3.33150 27389 ft 447 kts 101°
2026-05-07 12:10 55.49266 -3.27750 27830 ft 449 kts 102°
2026-05-07 12:11 55.48697 -3.22288 28291 ft 451 kts 103°
2026-05-07 12:11 55.48099 -3.16852 28744 ft 453 kts 103°
2026-05-07 12:11 55.47481 -3.11386 29110 ft 457 kts 104°
2026-05-07 12:11 55.46595 -3.06004 29490 ft 457 kts 113°
2026-05-07 12:12 55.45247 -3.00973 29872 ft 457 kts 122°
2026-05-07 12:12 55.43489 -2.96286 30356 ft 454 kts 129°
2026-05-07 12:12 55.41466 -2.92041 31001 ft 448 kts 135°
2026-05-07 12:12 55.39292 -2.88241 31586 ft 444 kts 139°
2026-05-07 12:13 55.37011 -2.84595 32085 ft 442 kts 141°
2026-05-07 12:13 55.34711 -2.81055 32581 ft 440 kts 141°
2026-05-07 12:13 55.32420 -2.77569 33060 ft 438 kts 141°
2026-05-07 12:13 55.30142 -2.74101 33546 ft 435 kts 141°
2026-05-07 12:14 55.27851 -2.70600 33987 ft 434 kts 141°
2026-05-07 12:14 55.25571 -2.67098 34372 ft 433 kts 141°
2026-05-07 12:14 55.23315 -2.63617 34737 ft 433 kts 140°
2026-05-07 12:14 55.21074 -2.60149 35111 ft 431 kts 140°
2026-05-07 12:15 55.18845 -2.56691 35376 ft 432 kts 140°
2026-05-07 12:15 55.16592 -2.53193 35629 ft 432 kts 140°
2026-05-07 12:15 55.14337 -2.49694 35887 ft 432 kts 140°
2026-05-07 12:15 55.12093 -2.46211 36113 ft 433 kts 140°
2026-05-07 12:16 55.09860 -2.42748 36343 ft 433 kts 140°
2026-05-07 12:16 55.07594 -2.39241 36586 ft 432 kts 140°
2026-05-07 12:16 55.05349 -2.35770 36786 ft 432 kts 140°
2026-05-07 12:16 55.03119 -2.32327 36985 ft 433 kts 141°
2026-05-07 12:17 55.00837 -2.28809 36984 ft 435 kts 141°
2026-05-07 12:17 54.96341 -2.21890 36986 ft 432 kts 140°
2026-05-07 12:18 54.91820 -2.14955 36988 ft 433 kts 140°
2026-05-07 12:18 54.87315 -2.08069 36990 ft 433 kts 140°
2026-05-07 12:19 54.82830 -2.01235 36981 ft 432 kts 140°
2026-05-07 12:19 54.78287 -1.94334 36982 ft 432 kts 140°
2026-05-07 12:20 54.73764 -1.87486 36993 ft 432 kts 140°
2026-05-07 12:20 54.69242 -1.80659 36995 ft 432 kts 140°
2026-05-07 12:21 54.64719 -1.73854 37007 ft 432 kts 140°
2026-05-07 12:21 54.60185 -1.67053 37021 ft 432 kts 140°
2026-05-07 12:22 54.55664 -1.60292 37024 ft 432 kts 140°
2026-05-07 12:22 54.51100 -1.53490 37018 ft 432 kts 140°
2026-05-07 12:23 54.46579 -1.46769 37023 ft 432 kts 140°
2026-05-07 12:23 54.42025 -1.40019 37027 ft 432 kts 140°
2026-05-07 12:24 54.37477 -1.33301 37031 ft 432 kts 140°
2026-05-07 12:24 54.32921 -1.26592 37026 ft 432 kts 140°
2026-05-07 12:25 54.28354 -1.19887 37029 ft 431 kts 140°
2026-05-07 12:25 54.23806 -1.13228 37029 ft 432 kts 140°
2026-05-07 12:26 54.19253 -1.06582 37030 ft 432 kts 140°
2026-05-07 12:26 54.14687 -0.99936 37028 ft 433 kts 140°
2026-05-07 12:27 54.10113 -0.93301 37031 ft 433 kts 140°
2026-05-07 12:27 54.05512 -0.86643 37031 ft 432 kts 140°
2026-05-07 12:28 54.00897 -0.80183 37026 ft 431 kts 143°
2026-05-07 12:28 53.96013 -0.74381 37033 ft 432 kts 146°
2026-05-07 12:29 53.90982 -0.68671 37032 ft 432 kts 146°
2026-05-07 12:29 53.86031 -0.63027 37037 ft 432 kts 146°
2026-05-07 12:30 53.81056 -0.57306 37047 ft 432 kts 145°
2026-05-07 12:30 53.76098 -0.51582 37043 ft 432 kts 145°
2026-05-07 12:31 53.71149 -0.45863 37051 ft 432 kts 145°
2026-05-07 12:31 53.66198 -0.40153 37056 ft 432 kts 145°
2026-05-07 12:32 53.61252 -0.34429 37061 ft 431 kts 144°
2026-05-07 12:32 53.56714 -0.27845 37068 ft 432 kts 133°
2026-05-07 12:33 53.51054 -0.16035 37058 ft 433 kts 127°
2026-05-07 12:33 53.47502 -0.07961 37056 ft 433 kts 127°
2026-05-07 12:34 53.43910 0.00153 37055 ft 432 kts 127°
2026-05-07 12:34 53.40288 0.08226 37056 ft 433 kts 127°
2026-05-07 12:35 53.36675 0.16209 37060 ft 432 kts 127°
2026-05-07 12:35 53.33022 0.24229 37058 ft 433 kts 127°
2026-05-07 12:36 53.29397 0.32155 37063 ft 433 kts 127°
2026-05-07 12:36 53.25726 0.40156 37057 ft 433 kts 127°
2026-05-07 12:37 53.22060 0.48118 37060 ft 434 kts 127°
2026-05-07 12:37 53.18376 0.56095 37067 ft 433 kts 127°
2026-05-07 12:38 53.14714 0.63999 37066 ft 433 kts 127°
2026-05-07 12:38 53.11033 0.71921 37071 ft 433 kts 128°
2026-05-07 12:39 53.07337 0.79846 37070 ft 434 kts 128°
2026-05-07 12:39 53.03613 0.87809 37067 ft 435 kts 127°
2026-05-07 12:40 52.99974 0.95769 37066 ft 434 kts 123°
2026-05-07 12:40 52.97362 1.04789 37070 ft 433 kts 106°
2026-05-07 12:41 52.95990 1.14455 37081 ft 434 kts 101°
2026-05-07 12:41 52.94904 1.24313 37083 ft 435 kts 100°
2026-05-07 12:42 52.93839 1.34126 37076 ft 435 kts 100°
2026-05-07 12:42 52.92722 1.44011 37086 ft 436 kts 101°
2026-05-07 12:43 52.91579 1.53817 37082 ft 435 kts 101°
2026-05-07 12:43 52.90408 1.63681 37078 ft 435 kts 101°
2026-05-07 12:44 52.89826 1.68539 36928 ft 430 kts 101°
2026-05-07 12:44 52.89247 1.73345 36584 ft 424 kts 101°
2026-05-07 12:44 52.88668 1.78136 36195 ft 422 kts 101°
2026-05-07 12:44 52.88096 1.82843 35733 ft 426 kts 101°
2026-05-07 12:45 52.87512 1.87626 35290 ft 426 kts 101°
2026-05-07 12:45 52.86922 1.92442 34842 ft 424 kts 101°
2026-05-07 12:45 52.86342 1.97162 34394 ft 419 kts 101°
2026-05-07 12:45 52.85760 2.01879 33879 ft 415 kts 101°
2026-05-07 12:46 52.85189 2.06493 33397 ft 411 kts 101°
2026-05-07 12:46 52.84617 2.11106 32841 ft 409 kts 101°
2026-05-07 12:46 52.84042 2.15725 32362 ft 405 kts 101°
2026-05-07 12:46 52.83478 2.20239 31845 ft 403 kts 101°
2026-05-07 12:47 52.82910 2.24777 31354 ft 399 kts 101°
2026-05-07 12:47 52.82352 2.29216 30860 ft 396 kts 101°
2026-05-07 12:47 52.81799 2.33604 30311 ft 393 kts 101°
2026-05-07 12:47 52.81237 2.38043 29748 ft 391 kts 101°
2026-05-07 12:48 52.80687 2.42388 29172 ft 390 kts 101°
2026-05-07 12:48 52.80136 2.46720 28700 ft 386 kts 101°
2026-05-07 12:48 52.79583 2.51052 28251 ft 381 kts 101°
2026-05-07 12:48 52.79040 2.55292 27805 ft 377 kts 101°
2026-05-07 12:49 52.78502 2.59475 27365 ft 373 kts 101°
2026-05-07 12:49 52.77967 2.63632 26923 ft 368 kts 101°
2026-05-07 12:49 52.77432 2.67767 26485 ft 365 kts 102°
2026-05-07 12:49 52.76907 2.71818 26053 ft 361 kts 102°
2026-05-07 12:50 52.76387 2.75824 25616 ft 359 kts 102°
2026-05-07 12:50 52.75848 2.79960 25187 ft 379 kts 102°
2026-05-07 12:50 52.75279 2.84310 24692 ft 395 kts 102°
2026-05-07 12:50 52.74699 2.88728 24199 ft 394 kts 102°
2026-05-07 12:51 52.74127 2.93041 23732 ft 389 kts 103°
2026-05-07 12:51 52.73449 2.97345 23259 ft 385 kts 107°
2026-05-07 12:51 52.72522 3.01435 22982 ft 381 kts 114°
2026-05-07 12:51 52.71353 3.05353 22562 ft 385 kts 118°
2026-05-07 12:52 52.70045 3.09208 22080 ft 383 kts 120°
2026-05-07 12:52 52.68716 3.12933 21604 ft 379 kts 121°
2026-05-07 12:52 52.67374 3.16636 21135 ft 375 kts 121°
2026-05-07 12:52 52.66042 3.20314 20658 ft 375 kts 120°
2026-05-07 12:53 52.64707 3.24016 20178 ft 373 kts 120°
2026-05-07 12:53 52.63408 3.27640 19701 ft 371 kts 120°
2026-05-07 12:53 52.62102 3.31297 19218 ft 368 kts 120°
2026-05-07 12:53 52.60822 3.34891 18748 ft 366 kts 120°
2026-05-07 12:54 52.59574 3.38549 18274 ft 364 kts 117°
2026-05-07 12:54 52.58570 3.42315 17805 ft 363 kts 109°
2026-05-07 12:54 52.57893 3.46281 17340 ft 361 kts 102°
2026-05-07 12:54 52.57408 3.50302 16872 ft 358 kts 99°
2026-05-07 12:55 52.57008 3.54351 16398 ft 355 kts 98°
2026-05-07 12:55 52.56636 3.58322 15939 ft 353 kts 98°
2026-05-07 12:55 52.56254 3.62295 15475 ft 350 kts 98°
2026-05-07 12:55 52.55857 3.66240 15015 ft 348 kts 99°
2026-05-07 12:56 52.55451 3.70128 14566 ft 346 kts 99°
2026-05-07 12:56 52.55037 3.74000 14110 ft 344 kts 100°
2026-05-07 12:56 52.54623 3.77810 13673 ft 341 kts 101°
2026-05-07 12:56 52.53914 3.81485 13238 ft 338 kts 117°
2026-05-07 12:57 52.52596 3.84688 12830 ft 336 kts 129°
2026-05-07 12:57 52.51100 3.87575 12404 ft 334 kts 131°
2026-05-07 12:57 52.49556 3.90404 12041 ft 331 kts 132°
2026-05-07 12:57 52.48025 3.93180 11742 ft 329 kts 132°
2026-05-07 12:58 52.46488 3.95964 11434 ft 329 kts 132°
2026-05-07 12:58 52.44959 3.98737 11076 ft 327 kts 132°
2026-05-07 12:58 52.43452 4.01476 10724 ft 322 kts 132°
2026-05-07 12:58 52.41978 4.04160 10340 ft 314 kts 132°
2026-05-07 12:59 52.40559 4.06749 9968 ft 299 kts 132°
2026-05-07 12:59 52.39195 4.09232 9614 ft 286 kts 132°
2026-05-07 12:59 52.37877 4.11623 9261 ft 282 kts 132°
2026-05-07 12:59 52.36553 4.14016 8863 ft 282 kts 132°
2026-05-07 13:00 52.35262 4.16345 8534 ft 279 kts 132°
2026-05-07 13:00 52.33946 4.18717 8224 ft 276 kts 132°
2026-05-07 13:00 52.32679 4.21000 7861 ft 274 kts 132°
2026-05-07 13:00 52.31400 4.23309 7514 ft 272 kts 132°
2026-05-07 13:01 52.30123 4.25610 7158 ft 270 kts 132°
2026-05-07 13:01 52.28862 4.27874 6818 ft 268 kts 132°
2026-05-07 13:01 52.27605 4.30115 6443 ft 267 kts 132°
2026-05-07 13:01 52.26360 4.32316 6043 ft 266 kts 132°
2026-05-07 13:02 52.25100 4.34538 5673 ft 265 kts 132°
2026-05-07 13:02 52.23842 4.36747 5298 ft 265 kts 132°
2026-05-07 13:02 52.22598 4.38915 5086 ft 258 kts 132°
2026-05-07 13:02 52.21398 4.41000 4986 ft 247 kts 132°
2026-05-07 13:03 52.20295 4.43080 4889 ft 236 kts 120°
2026-05-07 13:03 52.19776 4.45500 4822 ft 223 kts 97°
2026-05-07 13:03 52.19667 4.47942 4736 ft 211 kts 89°
2026-05-07 13:03 52.19913 4.50243 4543 ft 205 kts 67°
2026-05-07 13:04 52.20605 4.52312 4111 ft 210 kts 57°
2026-05-07 13:04 52.21390 4.54291 3716 ft 208 kts 57°
2026-05-07 13:04 52.22169 4.56280 3309 ft 207 kts 57°
2026-05-07 13:04 52.22925 4.58238 2922 ft 201 kts 57°
2026-05-07 13:05 52.23634 4.60073 2522 ft 188 kts 57°
2026-05-07 13:05 52.24317 4.61836 2102 ft 177 kts 56°
2026-05-07 13:05 52.24943 4.63456 1930 ft 159 kts 56°
2026-05-07 13:05 52.25518 4.64939 1978 ft 155 kts 56°
2026-05-07 13:06 52.26097 4.66440 1973 ft 154 kts 57°
2026-05-07 13:06 52.26662 4.67913 1977 ft 154 kts 57°
2026-05-07 13:06 52.27278 4.69498 1975 ft 172 kts 57°
2026-05-07 13:06 52.27916 4.71174 1804 ft 173 kts 58°
2026-05-07 13:07 52.28524 4.72882 1763 ft 174 kts 60°
2026-05-07 13:07 52.29120 4.74623 1975 ft 180 kts 59°
2026-05-07 13:07 52.29736 4.76421 1910 ft 179 kts 60°
2026-05-07 13:07 52.30329 4.78185 2047 ft 178 kts 60°
2026-05-07 13:08 52.30911 4.79943 2372 ft 179 kts 61°
2026-05-07 13:08 52.31488 4.81719 2977 ft 181 kts 61°
2026-05-07 13:08 52.32098 4.83567 3202 ft 184 kts 61°
2026-05-07 13:08 52.32694 4.85406 3486 ft 183 kts 62°
2026-05-07 13:09 52.33215 4.87310 3579 ft 194 kts 73°
2026-05-07 13:09 52.33420 4.89470 3419 ft 186 kts 88°
2026-05-07 13:09 52.33101 4.91460 3441 ft 191 kts 123°
2026-05-07 13:09 52.32029 4.93115 3449 ft 225 kts 142°
2026-05-07 13:10 52.30710 4.94669 3428 ft 239 kts 143°
2026-05-07 13:10 52.29352 4.96265 3445 ft 243 kts 143°
2026-05-07 13:10 52.27968 4.97896 3421 ft 245 kts 142°
2026-05-07 13:10 52.26539 4.99392 3281 ft 246 kts 156°
2026-05-07 13:11 52.24877 4.99854 3152 ft 247 kts 186°
2026-05-07 13:11 52.23278 4.98915 3009 ft 248 kts 216°
2026-05-07 13:11 52.22068 4.96955 2983 ft 246 kts 231°
2026-05-07 13:11 52.20983 4.94729 2962 ft 247 kts 232°
2026-05-07 13:12 52.19927 4.92518 2963 ft 247 kts 233°
2026-05-07 13:12 52.18872 4.90308 2963 ft 247 kts 233°
2026-05-07 13:12 52.17818 4.88103 2965 ft 247 kts 232°
2026-05-07 13:12 52.16763 4.85889 2965 ft 247 kts 233°
2026-05-07 13:13 52.15696 4.83651 2964 ft 247 kts 233°
2026-05-07 13:13 52.14647 4.81452 2969 ft 247 kts 233°
2026-05-07 13:13 52.13590 4.79235 2967 ft 247 kts 233°
2026-05-07 13:13 52.12534 4.77020 2969 ft 247 kts 233°
2026-05-07 13:14 52.11481 4.74812 2967 ft 248 kts 233°
2026-05-07 13:14 52.10480 4.72503 2960 ft 246 kts 245°
2026-05-07 13:14 52.10176 4.69904 2975 ft 228 kts 276°
2026-05-07 13:14 52.10401 4.67464 2975 ft 210 kts 283°
2026-05-07 13:15 52.10670 4.65198 2973 ft 195 kts 283°
2026-05-07 13:15 52.10960 4.63102 2976 ft 191 kts 295°
2026-05-07 13:15 52.11801 4.61464 2891 ft 190 kts 329°
2026-05-07 13:15 52.12944 4.60372 2645 ft 189 kts 333°
2026-05-07 13:16 52.14083 4.59330 2395 ft 188 kts 333°
2026-05-07 13:16 52.15208 4.58289 2148 ft 187 kts 333°
2026-05-07 13:16 52.16341 4.57234 1973 ft 182 kts 333°
2026-05-07 13:16 52.17422 4.56219 1983 ft 181 kts 333°
2026-05-07 13:17 52.18529 4.55192 1981 ft 180 kts 334°
2026-05-07 13:17 52.19623 4.54411 1963 ft 163 kts 358°
2026-05-07 13:17 52.20650 4.54872 2018 ft 157 kts 32°
2026-05-07 13:17 52.21560 4.55865 1973 ft 155 kts 37°
2026-05-07 13:18 52.22367 4.57071 1979 ft 157 kts 51°
2026-05-07 13:18 52.23000 4.58518 1983 ft 157 kts 56°
2026-05-07 13:18 52.23599 4.60012 1964 ft 158 kts 57°
2026-05-07 13:18 52.24192 4.61526 1765 ft 158 kts 57°
2026-05-07 13:19 52.24768 4.63014 1551 ft 155 kts 57°
2026-05-07 13:19 52.25351 4.64517 1340 ft 155 kts 58°
2026-05-07 13:19 52.25898 4.65936 1141 ft 146 kts 56°
2026-05-07 13:19 52.26440 4.67333 940 ft 144 kts 56°
2026-05-07 13:20 52.26981 4.68725 740 ft 145 kts 57°
2026-05-07 13:20 52.27517 4.70138 561 ft 148 kts 59°
2026-05-07 13:20 52.28077 4.71566 350 ft 150 kts 55°
2026-05-07 13:20 52.28643 4.73011 133 ft 148 kts 59°
2026-05-07 13:21 52.29182 4.74442 -1 ft 141 kts 56°
2026-05-07 13:21 52.29576 4.75455 -4 ft 71 kts 57°
2026-05-07 13:21 52.29809 4.75827 -4 ft 21 kts 27°
2026-05-07 13:21 52.29856 4.75866 -3 ft 4 kts 27°
2026-05-07 13:22 52.29877 4.75884 -3 ft 4 kts 28°
2026-05-07 13:22 52.29946 4.75944 -2 ft 16 kts 29°
2026-05-07 13:22 52.30033 4.76095 0 ft 18 kts 57°
2026-05-07 13:22 52.30100 4.76274 -2 ft 18 kts 59°
2026-05-07 13:23 52.30167 4.76448 -1 ft 17 kts 59°
2026-05-07 13:23 52.30234 4.76621 -3 ft 19 kts 58°
2026-05-07 13:23 52.30313 4.76826 -1 ft 21 kts 58°
2026-05-07 13:23 52.30389 4.77026 0 ft 19 kts 58°
2026-05-07 13:24 52.30456 4.77200 4 ft 16 kts 58°
2026-05-07 13:24 52.30515 4.77354 5 ft 15 kts 58°
2026-05-07 13:24 52.30571 4.77496 6 ft 14 kts 53°
2026-05-07 13:24 52.30649 4.77582 6 ft 13 kts 12°
2026-05-07 13:25 52.30724 4.77595 6 ft 8 kts
2026-05-07 13:25 52.30779 4.77600 7 ft 8 kts
2026-05-07 13:25 52.30831 4.77525 8 ft 12 kts 281°
2026-05-07 13:25 52.30837 4.77419 10 ft 4 kts 274°
2026-05-07 13:26 52.30838 4.77394 10 ft 0 kts 274°
2026-05-07 13:26 52.30838 4.77379 11 ft 1 kts 274°
2026-05-07 13:26 52.30840 4.77335 11 ft 6 kts 274°
2026-05-07 13:26 52.30843 4.77264 11 ft 6 kts 274°
2026-05-07 13:27 52.30845 4.77208 11 ft 3 kts 274°
2026-05-07 13:27 52.30843 4.77179 11 ft 1 kts 226°
2026-05-07 13:27 52.30830 4.77170 11 ft 2 kts 193°
2026-05-07 13:27 52.30811 4.77165 11 ft 2 kts 186°
2026-05-07 13:28 52.30792 4.77163 11 ft 0 kts 184°
2026-05-07 13:28 52.30791 4.77162 11 ft 0 kts 184°